Location: downtown San Diego
(32.7310°N, 117.1990°W)
Time: 20:54:24
(UTC-08:00)

Cosmos-2242 - Pass Details

Date: 14 June 2018
Orbit: 592 x 617 km, 82.5° (Epoch: 18 November)

Event Time Altitude Azimuth Distance (km) Brightness Sun altitude
Rises 22:08:58 0° 6° (N) 2,884 7.1 -22.2°
Reaches altitude 10° 22:11:25 10° 17° (NNE) 1,978 6.0 -22.5°
Enters shadow 22:14:35 28° 61° (ENE) 1,155 4.3 -22.9°
